Notices

What's New in latest Release from April 7th, 2021:

- Updated Glossary, including Speed of Maximum Gust, and Total Hourly Precipitation

- Updated national and regional climate services offices contacts and prices information

- Addition of station inventory lists for 1981-2010, 1971-2000, and 1961-1990 Normals.

If you haven't already, please take our survey and provide feedback about our website: https://eccc.sondage-survey.ca/f/LanguageSelection.aspx?s=442ca660-fcf1-47c0-95a9-59707d6fd709

Hourly Data Report for June 05, 2003

TORONTO CITY
ONTARIO

43°40'00.000" N
79°24'00.000" W
112.50 m
6158355
71508
XTO

Download Data

Hourly Data (June 2003)
Hourly Data Report for June 5, 2003
TIME
LST
Temp Definition
°C
Dew Point Definition
°C
Rel Hum Definition
%
Precip. Amount Definition
mm

Wind Dir Definition
10's deg

Wind Spd Definition
km/h
Visibility Definition
km
Stn Press Definition
kPa
Hmdx Definition


Wind Chill Definition


Weather Definition


00:00 12.4 11.3 93   LegendMM LegendMM LegendMM 99.38     LegendNANA
01:00 12.1 11.3 95   LegendMM LegendMM LegendMM 99.33     LegendNANA
02:00 11.5 10.9 96   LegendMM LegendMM LegendMM 99.34     LegendNANA
03:00 10.5 10.2 98   LegendMM LegendMM LegendMM 99.33     LegendNANA
04:00 9.9 9.6 98   LegendMM LegendMM LegendMM 99.31     LegendNANA
05:00 10.4 10.3 99   LegendMM LegendMM LegendMM 99.35     LegendNANA
06:00 9.8 9.7 99   LegendMM LegendMM LegendMM 99.35     LegendNANA
07:00 10.7 10.7 100   LegendMM LegendMM LegendMM 99.38     LegendNANA
08:00 11.7 11.7 100   LegendMM LegendMM LegendMM 99.38     LegendNANA
09:00 12.7 12.4 98   LegendMM LegendMM LegendMM 99.38     LegendNANA
10:00 13.0 12.4 96   LegendMM LegendMM LegendMM 99.42     LegendNANA
11:00 13.6 12.7 94   LegendMM LegendMM LegendMM 99.44     LegendNANA
12:00 13.4 12.8 96   LegendMM LegendMM LegendMM 99.47     LegendNANA
13:00 14.2 13.6 96   LegendMM LegendMM LegendMM 99.46     LegendNANA
14:00 14.5 13.6 94   LegendMM LegendMM LegendMM 99.47     LegendNANA
15:00 14.5 13.4 93   LegendMM LegendMM LegendMM 99.50     LegendNANA
16:00 14.6 13.7 94   LegendMM LegendMM LegendMM 99.54     LegendNANA
17:00 14.6 14.0 96   LegendMM LegendMM LegendMM 99.55     LegendNANA
18:00 14.9 14.0 94   LegendMM LegendMM LegendMM 99.59     LegendNANA
19:00 14.7 13.4 92   LegendMM LegendMM LegendMM 99.61     LegendNANA
20:00 14.5 13.2 92   LegendMM LegendMM LegendMM 99.67     LegendNANA
21:00 14.2 12.8 91   LegendMM LegendMM LegendMM 99.76     LegendNANA
22:00 12.9 11.8 93   LegendMM LegendMM LegendMM 99.79     LegendNANA
23:00 12.8 12.2 96   LegendMM LegendMM LegendMM 99.79     LegendNANA

Notes on Data Quality.

Legend

  • E = Estimated
  • M = Missing
  • NA = Not Available*
  • [empty] = Indicates an unobserved value
Date modified: